Location: Dead Woman Crossing
(43.5369°N, 106.3228°W)
Time: 13:07:57
(UTC+00:00)

ZACube-1 - Pass Details

Date: 30 June 2022
Orbit: 582 x 661 km, 97.6° (Epoch: 14 August)

Event Time Altitude Azimuth Distance (km) Brightness Sun altitude
Rises 10:00:08 0° 27° (NNE) 2,950 ? -12.6°
Reaches altitude 10° 10:02:52 10° 45° (NE) 2,049 ? -12.3°
Maximum altitude 10:06:11 20° 93° (E) 1,497 ? -11.9°
Drops below altitude 10° 10:09:30 10° 141° (SE) 2,063 ? -11.5°
Sets 10:12:14 0° 158° (SSE) 2,976 ? -11.2°
